Regional Weather Roundup
Issued by NWS

Home | Current Version | Previous Version | Graphics & Text | Print | Product List | Glossary On
Versions: 1 2 3 4 5 6 7 8 9 10 11 12 13 14 15 16 17 18 19 20 21 22 23 24 25 26 27 28 29 30 31 32 33 34 35 36 37 38 39 40 41 42 43 44 45 46 47 48 49 50
726
ASUS45 KTFX 221310
RWRMT
MONTANA REGIONAL WEATHER ROUNDUP
NATIONAL WEATHER SERVICE GREAT FALLS MT
700 AM MDT TUE AUG 22 2017

NOTE: "FAIR" INDICATES FEW OR NO CLOUDS BELOW 12000 FEET WITH NO
SIGNIFICANT WEATHER AND/OR OBSTRUCTIONS TO VISIBILITY.

MTZ001>007-043-221400-
WEST OF THE DIVIDE

CITY           SKY/WX    TMP DP  RH WIND       PRES   REMARKS
KALISPELL      CLEAR     43  42  97 CALM      30.15S
MISSOULA       MOCLDY    48  39  71 CALM      30.19R HAZE
BUTTE          CLEAR     42  32  67 CALM      30.28S
MULLAN PASS    CLEAR     59  33  37 SE7       30.26R
ANACONDA         N/A     50  34  53 S6        30.25R
DEER LODGE       N/A     43  37  81 CALM      30.26S
EUREKA           N/A     45  39  81 MISG      30.16S
HAMILTON         N/A     48  37  66 CALM      30.19S
LIBBY            N/A     46  39  76 CALM      30.14R
PLAINS           N/A     45  36  70 CALM      30.14R
RONAN            N/A     44  39  82 CALM      30.18R
$$

MTZ008-052>055-221400-
SOUTHWEST MONTANA

CITY           SKY/WX    TMP DP  RH WIND       PRES   REMARKS
BOZEMAN        CLOUDY    45  37  73 SE5       30.24R
DILLON         CLOUDY    48  32  53 S9        30.26R
W YELLOWSTONE  CLOUDY    30  30 100 CALM      30.38R
ENNIS          CLOUDY    48  32  53 CALM      30.32R
THREE FORKS      N/A     39  35  85 CALM      30.19S
TWIN BRIDGES     N/A     42  32  68 CALM      30.21S
$$

MTZ009-010-012-014-046-048-049-054-221400-
EAST SLOPES AND CENTRAL MONTANA

CITY           SKY/WX    TMP DP  RH WIND       PRES   REMARKS
CUT BANK       CLEAR     46  36  68 CALM      30.17S
GREAT FALLS    CLEAR     49  34  56 SW7       30.17S
MALMSTROM AFB  CLEAR     55  37  50 SW3       30.16S
HELENA         CLOUDY    53  37  54 CALM      30.20R
CHOTEAU          N/A     50  36  57 SW6       30.19S
$$

MTZ011-013-016-021-045-047-050-051-221400-
NORTH CENTRAL MONTANA

CITY           SKY/WX    TMP DP  RH WIND       PRES   REMARKS
HAVRE          CLEAR     49  36  61 CALM      30.15R
LEWISTOWN      CLEAR     51  34  52 SE9       30.20S
N BAR RANCH      N/A     46  32  57 CALM      30.24S
CHINOOK          N/A     52  37  58 E5        30.15S
$$

MTZ017>020-022>027-061-062-221400-
NORTHEAST MONTANA

CITY           SKY/WX    TMP DP  RH WIND       PRES   REMARKS
JORDAN           N/A     43  30  60 CALM      30.19R
SIDNEY         CLEAR     44  39  82 CALM      30.22R
WOLF POINT     CLEAR     46  31  55 CALM      30.21R
MALTA          CLEAR     46  37  71 E5        30.18S
PLENTYWOOD       N/A     50  34  53 CALM      30.20R
SCOBEY           N/A     39  29  68 CALM      30.18R
$$

MTZ028>42-056>058-221400-
SOUTHCENTRAL AND SOUTHEAST MONTANA

CITY           SKY/WX    TMP DP  RH WIND       PRES   REMARKS
BAKER          PTCLDY    49  37  63 E5        30.23R
BILLINGS       CLOUDY    53  35  50 SW7       30.20R
LIVINGSTON     CLOUDY    43  33  68 NW3       30.24S
MILES CITY     CLEAR     53  35  50 NE7       30.18S
BIG TIMBER     CLEAR     48  34  57 W9        30.26S
EKALAKA          N/A     56  35  45 SE7       30.19
LAUREL           N/A     49  32  52 CALM      30.17F
$$

REGIONAL REPORTS...DAKOTAS

CITY           SKY/WX    TMP DP  RH WIND       PRES   REMARKS
WILLISTON      PTCLDY    46  41  82 CALM      30.21R
MINOT          SUNNY     51  41  68 SW8       30.16R
DICKINSON      CLOUDY    51  44  77 NW3       30.21R
BEACH            N/A     45  39  81 S5        30.26R
CROSBY           N/A     45  41  87 S6        30.20R
TIOGA            N/A     45  41  87 CALM      30.22R
WATFORD CITY     N/A     45  39  81 CALM      30.21R
BISMARCK       SUNNY     50  45  83 SW3       30.20R
GRAND FORKS    SUNNY     53  49  86 W9        30.04R
FARGO          SUNNY     53  49  86 W8        30.06R
BUFFALO SD       N/A     52  40  63 CALM      30.17S
RAPID CITY     CLEAR     52  42  69 CALM      30.25R
$$

REGIONAL REPORTS...WYOMING/IDAHO/WASHINGTON

CITY           SKY/WX    TMP DP  RH WIND       PRES   REMARKS
GILLETTE       CLEAR     57  37  47 S13       30.23S
SHERIDAN       CLEAR     45  38  76 S3        30.21R
BUFFALO WY     CLEAR     59  31  34 CALM      30.26R
CODY           CLEAR     53  36  52 S7        30.28R
YELLOWSTONE LA   N/A     35  34  96 NW3       30.45R
IDAHO FALLS    CLOUDY    43  38  82 N5        30.24R
SALMON         CLEAR     44  37  76 CALM      30.23R
BOISE          CLEAR     62  38  40 E9        30.09R
SPOKANE        PTCLDY    61  46  57 E6        30.07R
$$

REGIONAL REPORTS...ALBERTA

CITY           SKY/WX    TMP DP  RH WIND       PRES   REMARKS
EDMONTON       CLOUDY    59  55  88 SW3       30.08S
CALGARY        PTCLDY    50  41  71 CALM      30.15S
LETHBRIDGE     PTCLDY    46  39  76 SW5       30.13R
MEDICINE HAT   PTCLDY    54  43  66 VRB2      30.11S
$$

REGIONAL REPORTS...SASKATCHEWAN

CITY           SKY/WX    TMP DP  RH WIND       PRES   REMARKS
SWIFT CURRENT  MOCLDY    55  32  41 S12       30.15S
REGINA         MOCLDY    46  37  71 SE3       30.17R
SASKATOON      MOCLDY    54  43  66 S5        30.13S
$$




USA.gov is the U.S. government's official web portal to all federal, state and local government web resources and services.